Temperature
4 4 4 4 4 5 5 5 5 5 5 6 7 7 7 8 8 8 8 8 8 8 8 8 8 8 7 7 7 7 7 6 6 6 5 5 5 4
4 4 4 4 4 4 4 5 5 5 5 6 6 7 7 7 7 7 7 7 7 7 7 7 7 7 7 7 7 7 6 6 5 5 5 5 4 4
3 3 3 4 4 4 4 4 5 5 5 6 6 6 6 6 7 7 7 7 7 7 7 7 7 7 7 6 6 6 6 5 5 5 5 4 4 3
3 3 3 3 4 4 4 4 4 5 5 5 6 6 6 6 6 6 6 6 6 6 6 6 6 6 6 6 6 6 5 5 5 5 4 4 3 3
3 3 3 3 3 4 4 4 4 5 5 5 5 6 5 5 5 6 6 6 6 6 6 6 6 5 6 5 5 5 5 5 4 4 4 3 3 3
3 3 3 3 3 4 4 4 4 4 5 5 5 5 5 5 5 5 5 5 5 5 5 5 5 5 5 5 5 5 4 4 4 4 3 3 2 2
3 3 3 3 3 3 3 4 4 4 5 5 5 5 5 5 5 5 4 4 5 4 5 5 5 5 4 4 4 4 4 4 3 3 3 2 2 2
2 3 3 3 3 3 3 4 4 4 4 4 4 4 4 5 4 4 4 4 4 4 4 4 4 4 4 4 4 3 3 3 3 3 2 2 2 1
2 2 3 3 3 3 3 3 4 4 4 4 4 4 4 5 4 4 4 4 4 3 3 3 3 3 3 3 3 3 3 3 2 2 2 1 1 1
2 2 2 3 3 3 3 3 4 4 4 4 4 5 5 4 4 4 4 4 3 3 3 3 3 3 3 2 2 2 2 2 2 2 1 1 1 0
2 2 2 2 3 3 3 3 3 4 4 4 4 4 4 4 4 4 3 3 2 2 3 2 3 2 2 2 2 2 2 1 1 1 1 0 0 0
2 2 2 2 3 3 3 3 3 3 3 3 4 4 4 3 4 3 3 3 3 2 2 2 2 2 1 2 1 1 1 1 1 1 0 0 -0 -0
2 2 2 2 3 3 3 3 3 3 3 3 3 3 3 3 3 3 3 3 3 3 3 2 2 2 1 1 1 1 1 1 0 0 -0 -0 -1 -1
2 2 2 2 2 2 2 3 3 3 3 3 3 2 3 3 3 2 2 2 3 3 3 2 2 2 2 1 1 0 0 0 0 -0 -0 -1 -1 -1
1 2 2 2 2 2 2 2 3 3 2 2 2 2 2 2 2 2 2 2 2 2 2 2 2 2 1 1 0 0 -0 -0 -0 -1 -1 -1 -1 -1
1 1 2 2 2 2 2 2 2 2 2 2 2 2 2 2 2 2 2 2 2 2 1 1 1 1 1 1 0 -0 -0 -1 -1 -1 -1 -1 -1 -2
1 1 1 1 1 1 1 1 1 2 2 1 1 1 1 1 1 1 2 2 1 1 1 0 0 0 0 0 -0 -0 -1 -1 -1 -1 -1 -1 -2 -2
1 1 1 1 1 1 1 1 1 1 1 1 1 1 1 1 1 1 1 1 1 1 0 -0 -0 -0 -0 -1 -1 -1 -1 -1 -1 -1 -2 -2 -2 -2
1 1 1 1 1 1 1 1 1 1 1 1 1 1 1 1 1 1 1 1 0 0 -0 -0 -0 -0 -1 -1 -2 -2 -1 -1 -2 -2 -2 -2 -2 -2
1 0 0 1 1 1 1 0 1 0 0 1 1 1 1 1 0 0 0 0 0 -0 -1 -1 -1 -1 -1 -1 -2 -2 -2 -2 -2 -2 -2 -2 -2 -2
0 0 0 0 0 0 0 0 0 0 0 0 0 0 0 1 0 0 0 -0 -0 -0 -1 -1 -1 -1 -1 -1 -2 -2 -2 -2 -2 -2 -2 -2 -2 -2
-0 -0 0 0 0 0 0 0 0 0 0 0 0 0 0 0 0 -0 -0 -0 -1 -1 -1 -1 -1 -1 -1 -1 -2 -2 -2 -2 -2 -3 -3 -3 -3 -3
-0 -0 -0 -0 -0 -0 -0 0 0 -0 0 0 0 0 0 -0 -0 -0 -1 -1 -1 -1 -1 -2 -2 -2 -1 -2 -2 -2 -2 -2 -2 -3 -3 -3 -3 -3
Wind_Speed
10 11 10 9 8 8 8 8 8 9 9 5 4 5 6 6 9 9 9 12 12 12 11 10 9 9 10 10 10 10 9 8 7 8 7 7 8 8
9 10 11 9 9 8 8 8 8 9 9 5 4 4 5 5 9 8 9 11 12 12 11 10 9 9 9 9 10 9 9 8 8 8 7 7 7 7
11 12 12 11 9 8 8 8 8 8 9 6 3 3 4 5 5 5 6 7 8 10 10 10 9 9 9 9 9 9 9 8 8 7 7 6 6 6
13 12 13 11 11 9 8 9 9 9 7 7 5 3 3 5 4 4 3 4 5 8 9 9 8 8 9 9 9 9 8 7 7 7 7 6 6 6
13 13 13 12 12 10 10 10 8 8 6 5 5 3 2 3 2 2 2 2 3 6 7 8 8 8 8 9 9 8 8 7 7 6 6 6 6 6
12 12 13 12 12 11 10 10 8 7 6 6 4 3 3 2 3 3 1 1 1 2 3 5 6 6 7 8 8 8 8 7 7 6 6 5 4 5
11 12 12 13 14 12 10 9 8 7 6 5 4 3 3 3 3 2 2 1 0 1 2 1 2 3 4 5 6 7 7 7 6 6 5 4 3 3
11 11 11 11 14 16 16 13 11 9 8 7 5 6 6 4 3 4 3 2 1 1 2 0 1 2 2 3 5 6 7 7 6 5 4 3 2 2
11 10 9 9 11 9 11 11 11 13 12 9 8 8 7 7 6 5 4 2 2 2 2 1 1 1 2 4 6 7 6 6 5 4 3 2 2 2
10 10 9 9 9 8 7 6 6 6 8 7 7 7 6 7 7 6 4 2 2 0 1 2 1 1 1 2 5 6 5 5 5 4 3 2 1 2
9 9 9 9 10 9 7 6 5 3 3 5 6 6 7 8 7 5 5 4 2 1 1 2 2 2 1 1 1 4 4 4 3 3 2 1 1 1
6 6 10 10 10 9 7 6 6 4 4 3 3 4 5 6 6 6 7 6 3 2 2 3 3 3 1 1 1 1 2 2 2 1 1 1 1 1
4 4 5 8 8 8 6 6 7 5 4 4 3 3 2 2 3 3 3 5 4 3 4 3 3 2 3 2 1 1 1 1 1 1 1 2 2 1
3 2 3 6 6 6 5 6 7 5 4 4 3 2 2 2 3 3 3 2 2 3 5 4 3 4 4 3 1 1 1 1 1 1 1 2 2 3
2 3 4 6 5 4 5 6 5 4 5 4 3 2 2 3 4 4 4 5 6 5 4 3 5 4 3 4 3 2 1 1 1 1 1 1 1 1
2 4 5 6 5 4 4 4 3 4 5 4 4 3 3 3 3 4 4 5 5 5 6 7 5 5 4 4 4 3 2 1 0 1 1 1 1 1
2 3 3 4 3 3 3 3 3 4 4 4 4 4 3 3 3 4 4 4 5 5 4 5 6 7 5 4 4 3 3 2 1 1 1 2 2 2
2 3 3 3 3 3 3 3 3 3 4 4 4 5 4 5 5 4 4 5 6 6 5 4 5 5 4 5 4 3 2 1 1 2 2 1 2 2
3 3 3 3 3 3 4 4 3 3 4 4 5 5 5 6 6 5 5 6 6 5 4 4 3 4 5 3 3 3 2 2 2 2 2 1 0 2
3 3 3 3 3 4 4 4 4 4 4 5 5 5 6 6 6 5 5 6 6 6 5 3 2 3 4 4 3 2 3 2 2 2 1 1 1 2
2 3 3 3 3 3 4 4 4 4 4 5 5 5 6 6 6 6 6 8 7 5 5 3 2 5 5 5 5 3 3 4 3 2 1 1 2 2
2 2 2 3 3 3 4 4 4 4 5 5 5 5 5 6 6 7 7 7 6 5 5 4 4 4 4 5 5 4 3 4 6 7 5 2 1 1
2 2 2 2 3 3 4 4 5 5 5 5 5 5 6 6 6 6 7 6 7 7 7 6 4 4 5 5 6 5 5 4 3 5 5 7 6 5
Wind_Direction
246 247 247 247 242 242 243 240 246 264 267 251 243 231 225 229 228 224 222 223 222 216 212 210 213 212 212 218 219 222 219 216 220 229 238 250 265 275
248 249 250 249 246 242 241 242 239 245 261 251 245 247 229 237 233 228 223 219 214 210 206 204 205 208 207 210 213 212 207 210 218 228 237 249 263 274
252 249 250 247 244 243 241 241 244 240 251 265 251 237 226 229 228 225 218 208 206 204 206 202 199 204 201 206 209 204 205 209 216 226 234 242 255 269
254 252 252 248 242 242 241 241 243 236 232 253 258 237 232 221 213 215 216 207 198 196 196 195 195 203 199 200 199 200 201 206 215 224 232 236 247 264
253 252 250 244 244 241 239 242 243 238 221 229 245 234 229 211 198 223 189 179 197 190 186 189 192 198 196 196 195 195 197 205 211 218 224 234 246 258
253 253 249 241 240 238 241 239 238 232 219 216 228 218 218 206 189 191 181 161 173 178 184 184 184 189 188 189 193 195 195 201 210 214 216 226 240 256
258 254 246 240 241 240 243 234 225 224 212 211 216 219 214 200 203 184 179 148 51 172 154 177 174 175 183 183 190 193 195 203 211 209 202 209 232 261
260 256 246 239 245 245 248 240 226 219 209 208 215 207 211 204 186 171 166 173 233 164 141 204 150 168 181 190 188 188 189 190 188 188 191 201 233 266
255 251 249 245 244 238 240 240 235 231 218 210 208 210 205 196 180 182 185 187 217 183 142 231 213 174 178 184 176 182 184 181 179 181 189 204 244 280
251 242 237 238 230 224 218 221 225 223 217 211 206 206 202 188 183 183 168 126 89 121 175 203 196 153 121 162 172 171 175 177 175 179 183 199 263 300
252 237 226 226 228 222 204 202 202 214 199 181 186 187 181 178 171 150 149 150 177 233 209 164 151 116 97 103 168 168 169 165 165 167 172 193 288 323
252 233 226 222 220 212 195 184 187 192 168 144 134 132 145 161 173 175 170 171 171 196 193 151 144 132 123 61 76 123 138 144 140 133 114 10 346 33
247 229 218 211 209 202 195 184 185 175 155 143 135 127 124 138 148 149 161 174 180 199 181 151 143 138 142 144 34 49 108 111 90 85 43 10 354 7
238 208 184 175 176 181 182 168 162 155 143 140 139 144 145 146 132 115 105 100 113 162 167 153 150 156 145 140 150 60 47 82 94 67 31 7 1 347
193 162 153 150 149 152 149 148 148 145 143 146 151 157 147 140 123 105 90 92 82 77 94 115 132 135 132 144 144 133 92 38 64 68 29 1 339 348
120 125 123 122 120 117 128 129 132 150 152 152 149 144 133 127 127 126 121 113 98 77 60 70 96 120 120 119 131 134 132 148 107 62 43 1 352 11
135 119 121 128 127 122 124 127 130 138 137 141 141 139 137 138 133 126 124 117 115 117 93 71 72 77 84 114 120 122 116 102 119 80 61 23 351 349
132 126 134 141 145 147 147 141 136 141 147 144 145 147 149 143 130 120 120 121 123 122 118 116 111 94 77 54 57 122 107 104 88 71 71 67 14 355
119 125 134 144 148 148 149 148 148 149 147 146 148 148 143 136 133 131 127 123 122 122 122 125 126 125 118 104 31 38 123 112 86 62 45 58 27 332
116 134 141 141 142 148 152 149 146 144 144 145 144 142 140 136 136 134 133 132 130 124 118 108 107 125 130 135 127 53 58 111 106 85 46 31 11 348
117 125 132 138 139 142 148 148 148 148 146 144 139 140 141 138 136 134 132 130 126 128 129 126 112 107 104 98 96 74 40 50 86 123 108 60 38 27
118 123 127 135 134 140 143 145 144 142 141 140 139 141 139 136 136 136 134 133 130 126 119 114 105 97 91 105 110 102 71 47 52 59 56 73 116 84
117 123 123 129 134 136 141 142 143 143 143 142 140 138 135 132 132 130 128 128 127 125 121 116 100 84 88 103 109 103 88 70 57 54 41 37 53 59
Height
1414 1414 1414 1414 1414 1414 1414 1414 1414 1410 1407 1407 1407 1408 1410 1411 1413 1414 1415 1417 1419 1421 1423 1425 1427 1428 1430 1433 1434 1435 1435 1436 1436 1437 1437 1437 1436 1435
1406 1406 1406 1406 1406 1406 1406 1407 1407 1406 1403 1401 1402 1403 1404 1405 1407 1408 1410 1411 1413 1415 1417 1419 1421 1423 1425 1427 1428 1430 1430 1431 1431 1432 1432 1432 1431 1431
1398 1398 1397 1398 1397 1398 1398 1399 1399 1400 1398 1396 1398 1398 1399 1400 1401 1403 1404 1405 1407 1410 1412 1414 1415 1418 1420 1422 1423 1424 1425 1426 1427 1427 1427 1427 1427 1427
1389 1389 1389 1390 1389 1390 1391 1391 1392 1393 1393 1392 1392 1393 1394 1395 1396 1397 1399 1401 1403 1405 1407 1409 1411 1413 1415 1417 1418 1419 1420 1421 1422 1422 1422 1423 1422 1422
1380 1380 1380 1381 1381 1382 1383 1384 1385 1386 1387 1388 1387 1388 1389 1391 1392 1393 1394 1396 1399 1400 1402 1404 1406 1408 1410 1412 1413 1414 1415 1416 1417 1417 1418 1418 1418 1417
1373 1373 1373 1373 1374 1375 1376 1377 1378 1379 1381 1382 1383 1383 1384 1386 1388 1388 1390 1392 1394 1396 1398 1400 1402 1404 1405 1407 1408 1410 1411 1412 1412 1413 1413 1414 1413 1413
1364 1364 1365 1366 1367 1368 1369 1370 1372 1373 1375 1376 1378 1378 1380 1382 1383 1385 1387 1388 1390 1393 1394 1396 1398 1399 1401 1403 1404 1405 1407 1407 1408 1409 1409 1409 1409 1409
1356 1357 1357 1359 1360 1361 1362 1364 1366 1368 1369 1371 1372 1374 1375 1378 1379 1381 1383 1385 1386 1390 1391 1392 1394 1395 1397 1399 1400 1401 1403 1404 1404 1405 1405 1406 1406 1406
1350 1350 1351 1352 1353 1355 1356 1358 1360 1363 1365 1367 1367 1369 1371 1373 1375 1378 1380 1382 1383 1386 1388 1389 1391 1392 1394 1396 1397 1398 1400 1400 1401 1402 1403 1403 1403 1403
1343 1343 1344 1345 1347 1349 1350 1352 1355 1357 1360 1362 1364 1365 1368 1370 1372 1374 1376 1379 1381 1384 1386 1387 1388 1390 1392 1394 1395 1396 1397 1398 1399 1399 1400 1400 1400 1400
1336 1337 1338 1340 1342 1344 1346 1348 1350 1353 1356 1358 1361 1362 1364 1367 1369 1371 1373 1375 1377 1380 1382 1384 1386 1388 1390 1392 1393 1394 1395 1396 1397 1397 1398 1398 1398 1398
1329 1331 1333 1335 1337 1340 1342 1344 1346 1349 1351 1354 1357 1359 1361 1363 1365 1368 1370 1373 1375 1377 1379 1382 1383 1385 1388 1390 1391 1392 1393 1395 1395 1396 1396 1396 1396 1395
1324 1326 1328 1331 1333 1336 1339 1341 1343 1346 1348 1351 1353 1355 1357 1360 1362 1365 1368 1370 1372 1374 1376 1378 1380 1383 1385 1387 1389 1390 1392 1393 1393 1394 1394 1394 1394 1393
1321 1323 1325 1328 1330 1333 1336 1338 1341 1344 1345 1347 1350 1352 1354 1356 1359 1362 1365 1367 1370 1372 1374 1376 1378 1380 1382 1384 1386 1388 1390 1391 1392 1392 1392 1392 1392 1392
1320 1321 1323 1326 1328 1331 1334 1336 1339 1341 1342 1345 1347 1349 1352 1354 1357 1359 1362 1365 1367 1370 1372 1374 1376 1378 1380 1382 1384 1386 1388 1389 1390 1390 1391 1391 1390 1390
1318 1320 1321 1324 1327 1329 1332 1334 1337 1339 1341 1343 1345 1348 1350 1352 1355 1358 1360 1363 1365 1368 1370 1373 1375 1377 1379 1381 1383 1385 1387 1388 1389 1389 1390 1390 1389 1389
1317 1318 1320 1322 1325 1328 1331 1333 1335 1338 1340 1342 1344 1346 1348 1351 1353 1357 1359 1362 1364 1366 1369 1372 1375 1377 1379 1381 1382 1384 1386 1387 1388 1388 1389 1388 1388 1388
1316 1317 1319 1321 1324 1326 1329 1331 1334 1336 1338 1341 1343 1345 1347 1349 1352 1355 1358 1361 1363 1366 1368 1371 1374 1376 1379 1381 1384 1384 1385 1387 1388 1388 1388 1388 1387 1387
1315 1316 1318 1321 1323 1326 1328 1330 1332 1335 1337 1340 1342 1344 1347 1349 1352 1355 1358 1360 1363 1366 1368 1371 1374 1375 1377 1380 1383 1385 1386 1387 1387 1388 1388 1388 1388 1387
1314 1316 1318 1320 1322 1325 1327 1329 1332 1334 1337 1339 1341 1344 1347 1349 1352 1355 1357 1360 1363 1366 1369 1371 1374 1376 1378 1380 1382 1385 1387 1387 1387 1388 1388 1388 1388 1388
1314 1316 1318 1320 1322 1324 1327 1329 1331 1334 1336 1339 1341 1344 1346 1349 1352 1355 1357 1360 1363 1366 1369 1372 1375 1377 1379 1381 1383 1385 1387 1388 1389 1389 1389 1388 1388 1387
1314 1316 1318 1320 1322 1324 1326 1328 1331 1333 1336 1339 1341 1344 1347 1349 1352 1355 1358 1360 1363 1367 1369 1373 1376 1378 1380 1382 1383 1385 1387 1389 1390 1390 1390 1390 1390 1388
1314 1316 1318 1320 1322 1324 1326 1328 1331 1333 1336 1338 1341 1344 1347 1350 1353 1356 1358 1361 1364 1367 1370 1373 1377 1379 1381 1383 1385 1387 1388 1390 1390 1391 1391 1392 1391 1391